Location: Bangkok
(13.7500°N, 100.5170°E)
Time: 20:48:05
(UTC+07:00)

Hubble Space Telescope - Visible Passes

Search period start: 01 October 2016 00:00
Search period end: 11 October 2016 00:00
Orbit: 539 x 542 km, 28.5° (Epoch: 30 September)

Date Brightness Start Highest point End Pass type
(mag) Time Alt. Az. Time Alt. Az. Time Alt. Az.
01 Oct 0.7 04:49:12 56° W 04:49:52 68° SSW 04:53:59 10° SE visible
01 Oct 2.2 18:26:39 10° SSW 18:29:59 24° SSE 18:33:20 10° E visible
01 Oct 2.8 20:07:01 10° WSW 20:09:03 27° W 20:09:03 27° W visible
02 Oct 1.3 04:40:26 46° S 04:40:26 46° S 04:44:03 10° SE visible
02 Oct 2.3 19:57:22 10° W 20:00:12 35° WNW 20:00:12 35° WNW visible
03 Oct 2.3 04:31:40 26° S 04:31:40 26° S 04:34:00 10° SE visible
03 Oct 2.1 19:47:49 10° W 19:51:17 33° NNW 19:51:17 33° NNW visible
04 Oct 3.2 04:22:53 14° SSE 04:22:53 14° SSE 04:23:47 10° SSE visible
04 Oct 2.3 19:38:20 10° W 19:41:52 27° NNW 19:42:18 26° N visible
05 Oct 2.6 19:28:55 10° WNW 19:32:10 22° NNW 19:33:15 20° N visible
06 Oct 2.9 19:19:36 10° WNW 19:22:28 18° NNW 19:24:07 15° NNE visible
07 Oct 3.1 19:10:19 10° NW 19:12:48 15° NNW 19:14:57 11° NNE visible
08 Oct 3.2 19:01:07 10° NW 19:03:09 13° N 19:05:13 10° NNE visible
09 Oct 3.3 18:51:57 10° NNW 18:53:32 12° N 18:55:06 10° NNE visible
10 Oct 3.3 18:42:50 10° NNW 18:43:54 11° N 18:44:59 10° N visible
